BAW6R HEAX-LGAV

Flight info

Callsign BAW6R
Flight time 1h 25m
Altitude 40000
Route NOZ1B NOZ L551 ANTAR UN133 KPC UN137 RIPLI UL995 VARIX VARIX1Q
Aircraft A35K/H-SBDE1E2E3GHIJ1J3J4J5J6M1M2P2RWXYZ/LB1D1

Departure

Time 2026-05-04 20:16
Airport Alexandria International Airport (HEAX)

Arrival

Time 2026-05-04 21:41
Airport Athens Eleftherios Venizelos International Airport (LGAV)
Time Latitude Longitude Altitude Speed Heading
2026-05-04 19:59 30.92704 29.69812 206 ft 0 kts 53°
2026-05-04 20:05 30.92704 29.69811 188 ft 1 kts 53°
2026-05-04 20:05 30.92697 29.69798 208 ft 2 kts 79°
2026-05-04 20:05 30.92696 29.69783 208 ft 2 kts 104°
2026-05-04 20:06 30.92701 29.69768 206 ft 2 kts 131°
2026-05-04 20:06 30.92703 29.69765 201 ft 0 kts 136°
2026-05-04 20:07 30.92702 29.69766 200 ft 1 kts 136°
2026-05-04 20:07 30.92696 29.69773 206 ft 2 kts 135°
2026-05-04 20:08 30.92694 29.69775 206 ft 0 kts 134°
2026-05-04 20:09 30.92694 29.69776 188 ft 0 kts 134°
2026-05-04 20:10 30.92672 29.69790 199 ft 8 kts 153°
2026-05-04 20:10 30.92613 29.69827 206 ft 12 kts 148°
2026-05-04 20:10 30.92537 29.69888 201 ft 15 kts 144°
2026-05-04 20:10 30.92456 29.69899 202 ft 12 kts 195°
2026-05-04 20:11 30.92368 29.69916 207 ft 14 kts 159°
2026-05-04 20:11 30.92276 29.69977 203 ft 17 kts 138°
2026-05-04 20:11 30.92176 29.70078 204 ft 20 kts 142°
2026-05-04 20:11 30.92059 29.70182 208 ft 23 kts 142°
2026-05-04 20:12 30.91922 29.70304 205 ft 27 kts 143°
2026-05-04 20:12 30.91768 29.70440 205 ft 30 kts 143°
2026-05-04 20:12 30.91592 29.70593 199 ft 34 kts 143°
2026-05-04 20:12 30.91394 29.70766 177 ft 36 kts 142°
2026-05-04 20:13 30.91187 29.70949 171 ft 37 kts 143°
2026-05-04 20:13 30.90983 29.71130 166 ft 32 kts 143°
2026-05-04 20:13 30.90943 29.71152 166 ft 2 kts 182°
2026-05-04 20:13 30.90909 29.71129 169 ft 5 kts 212°
2026-05-04 20:14 30.90867 29.71088 172 ft 12 kts 227°
2026-05-04 20:14 30.90801 29.70994 180 ft 15 kts 232°
2026-05-04 20:14 30.90738 29.70896 203 ft 15 kts 233°
2026-05-04 20:14 30.90683 29.70797 203 ft 15 kts 242°
2026-05-04 20:15 30.90631 29.70676 196 ft 18 kts 246°
2026-05-04 20:15 30.90663 29.70586 201 ft 13 kts 319°
2026-05-04 20:15 30.90812 29.70458 196 ft 61 kts 323°
2026-05-04 20:15 30.91399 29.69946 208 ft 148 kts 324°
2026-05-04 20:16 30.92295 29.69147 932 ft 167 kts 318°
2026-05-04 20:16 30.93346 29.68364 1699 ft 199 kts 335°
2026-05-04 20:16 30.94752 29.67763 2135 ft 228 kts 344°
2026-05-04 20:16 30.96354 29.67654 2932 ft 242 kts
2026-05-04 20:17 30.97954 29.68396 3822 ft 257 kts 32°
2026-05-04 20:17 30.99120 29.70026 4708 ft 270 kts 59°
2026-05-04 20:17 30.99884 29.72055 5477 ft 277 kts 65°
2026-05-04 20:17 31.00597 29.74162 5967 ft 280 kts 65°
2026-05-04 20:18 31.01322 29.76275 6100 ft 281 kts 64°
2026-05-04 20:18 31.02066 29.78398 6108 ft 283 kts 64°
2026-05-04 20:18 31.02955 29.80428 6099 ft 280 kts 50°
2026-05-04 20:18 31.04317 29.82008 6113 ft 275 kts 35°
2026-05-04 20:19 31.05821 29.83377 6106 ft 274 kts 33°
2026-05-04 20:19 31.07337 29.84730 6105 ft 274 kts 33°
2026-05-04 20:19 31.08847 29.86085 6106 ft 274 kts 33°
2026-05-04 20:19 31.10353 29.87446 6237 ft 274 kts 33°
2026-05-04 20:20 31.11875 29.88823 6811 ft 279 kts 33°
2026-05-04 20:20 31.13413 29.90220 7812 ft 281 kts 33°
2026-05-04 20:20 31.14963 29.91630 8818 ft 285 kts 32°
2026-05-04 20:20 31.16616 29.92925 9611 ft 286 kts 21°
2026-05-04 20:21 31.18474 29.93648 10205 ft 280 kts
2026-05-04 20:21 31.20453 29.93644 10665 ft 293 kts 345°
2026-05-04 20:21 31.24439 29.91808 11498 ft 326 kts 328°
2026-05-04 20:22 31.26451 29.90528 12292 ft 332 kts 326°
2026-05-04 20:22 31.28470 29.89189 13218 ft 335 kts 326°
2026-05-04 20:22 31.30505 29.87841 14108 ft 338 kts 326°
2026-05-04 20:22 31.32577 29.86489 14886 ft 343 kts 326°
2026-05-04 20:23 31.34682 29.85138 15666 ft 348 kts 326°
2026-05-04 20:23 31.36823 29.83783 16472 ft 352 kts 326°
2026-05-04 20:23 31.38286 29.82863 17000 ft 354 kts 326°
2026-05-04 20:23 31.40472 29.81494 17846 ft 357 kts 326°
2026-05-04 20:24 31.42646 29.80135 18611 ft 361 kts 326°
2026-05-04 20:24 31.44879 29.78737 19279 ft 366 kts 326°
2026-05-04 20:24 31.47134 29.77325 19979 ft 370 kts 325°
2026-05-04 20:24 31.49412 29.75896 20705 ft 373 kts 325°
2026-05-04 20:25 31.51712 29.74451 21429 ft 377 kts 325°
2026-05-04 20:25 31.54035 29.72992 22219 ft 380 kts 324°
2026-05-04 20:25 31.56376 29.71521 23031 ft 382 kts 324°
2026-05-04 20:25 31.58735 29.70036 23723 ft 387 kts 324°
2026-05-04 20:26 31.61116 29.68535 24296 ft 391 kts 324°
2026-05-04 20:26 31.63526 29.67014 24910 ft 395 kts 324°
2026-05-04 20:26 31.65960 29.65479 25515 ft 398 kts 324°
2026-05-04 20:26 31.68409 29.63934 26114 ft 402 kts 324°
2026-05-04 20:27 31.70884 29.62373 26707 ft 405 kts 325°
2026-05-04 20:27 31.73377 29.60799 27305 ft 409 kts 325°
2026-05-04 20:27 31.75896 29.59207 27901 ft 412 kts 325°
2026-05-04 20:27 31.78431 29.57604 28488 ft 416 kts 325°
2026-05-04 20:28 31.80991 29.55985 29067 ft 419 kts 325°
2026-05-04 20:28 31.83567 29.54355 29698 ft 421 kts 325°
2026-05-04 20:28 31.86119 29.52740 30305 ft 423 kts 325°
2026-05-04 20:28 31.88715 29.51096 30748 ft 426 kts 325°
2026-05-04 20:29 31.91338 29.49431 31113 ft 430 kts 325°
2026-05-04 20:29 31.93981 29.47752 31477 ft 434 kts 325°
2026-05-04 20:29 31.96651 29.46055 31845 ft 437 kts 325°
2026-05-04 20:29 31.99331 29.44351 32218 ft 440 kts 325°
2026-05-04 20:30 32.02039 29.42633 32555 ft 443 kts 325°
2026-05-04 20:30 32.04761 29.40903 32906 ft 446 kts 325°
2026-05-04 20:30 32.07494 29.39164 33360 ft 445 kts 325°
2026-05-04 20:30 32.10216 29.37431 33882 ft 444 kts 325°
2026-05-04 20:31 32.12933 29.35701 34379 ft 443 kts 324°
2026-05-04 20:31 32.15642 29.33973 34761 ft 442 kts 325°
2026-05-04 20:31 32.18345 29.32246 35104 ft 443 kts 325°
2026-05-04 20:31 32.21058 29.30510 35445 ft 443 kts 325°
2026-05-04 20:32 32.23771 29.28778 35783 ft 444 kts 325°
2026-05-04 20:32 32.26486 29.27040 36096 ft 444 kts 325°
2026-05-04 20:32 32.29202 29.25297 36423 ft 444 kts 325°
2026-05-04 20:32 32.31916 29.23554 36791 ft 443 kts 325°
2026-05-04 20:33 32.34622 29.21816 37166 ft 442 kts 325°
2026-05-04 20:33 32.37325 29.20078 37482 ft 442 kts 325°
2026-05-04 20:33 32.40034 29.18336 37765 ft 443 kts 325°
2026-05-04 20:33 32.42703 29.16618 38033 ft 443 kts 325°
2026-05-04 20:34 32.45417 29.14871 38300 ft 443 kts 326°
2026-05-04 20:34 32.48124 29.13127 38594 ft 443 kts 326°
2026-05-04 20:34 32.50839 29.11377 38854 ft 444 kts 326°
2026-05-04 20:34 32.53550 29.09628 39037 ft 444 kts 326°
2026-05-04 20:35 32.56270 29.07872 39212 ft 445 kts 326°
2026-05-04 20:35 32.58991 29.06113 39379 ft 446 kts 326°
2026-05-04 20:35 32.61716 29.04352 39549 ft 447 kts 326°
2026-05-04 20:35 32.64445 29.02586 39737 ft 447 kts 326°
2026-05-04 20:36 32.67177 29.00818 39921 ft 448 kts 326°
2026-05-04 20:36 32.69915 28.99044 40045 ft 449 kts 326°
2026-05-04 20:36 32.75418 28.95475 40121 ft 450 kts 326°
2026-05-04 20:37 32.80907 28.91914 40107 ft 449 kts 326°
2026-05-04 20:37 32.86388 28.88350 40096 ft 449 kts 326°
2026-05-04 20:38 32.91863 28.84785 40108 ft 448 kts 326°
2026-05-04 20:38 32.97332 28.81217 40109 ft 449 kts 326°
2026-05-04 20:39 33.02779 28.77660 40102 ft 449 kts 326°
2026-05-04 20:39 33.08258 28.74077 40102 ft 449 kts 326°
2026-05-04 20:40 33.13734 28.70490 40099 ft 449 kts 326°
2026-05-04 20:40 33.16473 28.68695 40100 ft 449 kts 326°
2026-05-04 20:41 33.25004 28.63091 40119 ft 447 kts 327°
2026-05-04 20:41 33.30412 28.59535 40102 ft 446 kts 326°
2026-05-04 20:42 33.35850 28.55954 40099 ft 446 kts 326°
2026-05-04 20:42 33.41289 28.52365 40099 ft 446 kts 326°
2026-05-04 20:43 33.46720 28.48777 40099 ft 446 kts 326°
2026-05-04 20:43 33.52152 28.45183 40122 ft 446 kts 327°
2026-05-04 20:44 33.57586 28.41582 40099 ft 446 kts 327°
2026-05-04 20:44 33.63022 28.37975 40099 ft 446 kts 327°
2026-05-04 20:45 33.68414 28.34392 40099 ft 445 kts 327°
2026-05-04 20:45 33.73831 28.30788 40100 ft 445 kts 327°
2026-05-04 20:46 33.79238 28.27185 40100 ft 444 kts 327°
2026-05-04 20:46 33.84643 28.23563 40100 ft 444 kts 327°
2026-05-04 20:47 33.90031 28.19918 40100 ft 444 kts 327°
2026-05-04 20:47 33.95422 28.16266 40097 ft 444 kts 327°
2026-05-04 20:48 34.00810 28.12616 40099 ft 444 kts 327°
2026-05-04 20:48 34.06201 28.08961 40097 ft 444 kts 327°
2026-05-04 20:49 34.11591 28.05301 40101 ft 445 kts 327°
2026-05-04 20:49 34.16994 28.01627 40092 ft 445 kts 327°
2026-05-04 20:50 34.22353 27.97978 40097 ft 444 kts 327°
2026-05-04 20:50 34.27741 27.94303 40096 ft 445 kts 327°
2026-05-04 20:51 34.33134 27.90619 40090 ft 445 kts 327°
2026-05-04 20:51 34.38523 27.86932 40094 ft 444 kts 327°
2026-05-04 20:52 34.43910 27.83242 40094 ft 445 kts 327°
2026-05-04 20:52 34.49261 27.79571 40088 ft 445 kts 327°
2026-05-04 20:53 34.54647 27.75870 40086 ft 445 kts 327°
2026-05-04 20:53 34.60027 27.72158 40086 ft 445 kts 327°
2026-05-04 20:54 34.65398 27.68438 40098 ft 445 kts 327°
2026-05-04 20:54 34.70786 27.64703 40088 ft 446 kts 327°
2026-05-04 20:55 34.75262 27.61597 40086 ft 446 kts 327°
2026-05-04 20:55 34.80645 27.57859 40088 ft 445 kts 327°
2026-05-04 20:56 34.86030 27.54113 40088 ft 445 kts 327°
2026-05-04 20:56 34.91416 27.50359 40103 ft 446 kts 327°
2026-05-04 20:57 34.96764 27.46626 40080 ft 446 kts 327°
2026-05-04 20:57 35.02145 27.42866 40089 ft 445 kts 327°
2026-05-04 20:58 35.07523 27.39101 40089 ft 445 kts 327°
2026-05-04 20:58 35.12899 27.35333 40091 ft 445 kts 327°
2026-05-04 20:59 35.18271 27.31561 40091 ft 445 kts 327°
2026-05-04 20:59 35.23648 27.27779 40091 ft 445 kts 327°
2026-05-04 21:00 35.29018 27.23998 40094 ft 445 kts 327°
2026-05-04 21:00 35.34350 27.20236 40100 ft 445 kts 327°
2026-05-04 21:01 35.39712 27.16448 40098 ft 445 kts 327°
2026-05-04 21:01 35.45054 27.12607 40119 ft 444 kts 326°
2026-05-04 21:02 35.50256 27.08499 40101 ft 444 kts 324°
2026-05-04 21:02 35.55432 27.04337 40102 ft 444 kts 324°
2026-05-04 21:03 35.60622 27.00211 40099 ft 444 kts 325°
2026-05-04 21:03 35.65825 26.96103 40100 ft 444 kts 325°
2026-05-04 21:04 35.71031 26.91996 40097 ft 444 kts 325°
2026-05-04 21:04 35.76236 26.87881 40096 ft 445 kts 325°
2026-05-04 21:05 35.81445 26.83754 40096 ft 445 kts 325°
2026-05-04 21:05 35.86646 26.79627 40097 ft 444 kts 325°
2026-05-04 21:06 35.91834 26.75504 40094 ft 444 kts 325°
2026-05-04 21:06 35.96986 26.71384 40099 ft 444 kts 325°
2026-05-04 21:07 36.02165 26.67233 40104 ft 444 kts 325°
2026-05-04 21:07 36.07373 26.63054 40097 ft 447 kts 325°
2026-05-04 21:08 36.12598 26.58855 40099 ft 448 kts 325°
2026-05-04 21:08 36.17821 26.54652 40096 ft 447 kts 325°
2026-05-04 21:09 36.23031 26.50454 40100 ft 446 kts 325°
2026-05-04 21:09 36.28224 26.46261 40111 ft 446 kts 325°
2026-05-04 21:10 36.33426 26.42053 40103 ft 447 kts 325°
2026-05-04 21:10 36.38497 26.37945 40104 ft 447 kts 325°
2026-05-04 21:11 36.43233 26.34103 40105 ft 447 kts 325°
2026-05-04 21:11 36.48443 26.29871 40107 ft 447 kts 325°
2026-05-04 21:12 36.53648 26.25635 40098 ft 447 kts 325°
2026-05-04 21:12 36.58512 26.20848 40109 ft 445 kts 317°
2026-05-04 21:13 36.63018 26.15532 40105 ft 446 kts 315°
2026-05-04 21:13 36.67454 26.10123 40108 ft 446 kts 315°
2026-05-04 21:14 36.71885 26.04708 39847 ft 446 kts 315°
2026-05-04 21:14 36.74103 26.02005 39621 ft 445 kts 315°
2026-05-04 21:14 36.76318 25.99309 39395 ft 445 kts 316°
2026-05-04 21:15 36.78535 25.96611 39169 ft 445 kts 316°
2026-05-04 21:15 36.80718 25.93952 38941 ft 444 kts 316°
2026-05-04 21:15 36.82922 25.91268 38705 ft 441 kts 316°
2026-05-04 21:15 36.85115 25.88593 38431 ft 441 kts 316°
2026-05-04 21:16 36.87310 25.85913 38159 ft 442 kts 316°
2026-05-04 21:16 36.89516 25.83218 37885 ft 445 kts 316°
2026-05-04 21:16 36.91732 25.80508 37611 ft 447 kts 316°
2026-05-04 21:16 36.93962 25.77778 37349 ft 448 kts 316°
2026-05-04 21:17 36.96193 25.75045 37086 ft 450 kts 316°
2026-05-04 21:17 36.98431 25.72301 36836 ft 451 kts 316°
2026-05-04 21:17 37.00680 25.69542 36562 ft 453 kts 316°
2026-05-04 21:17 37.02932 25.66775 36305 ft 454 kts 316°
2026-05-04 21:18 37.05194 25.63994 36037 ft 456 kts 316°
2026-05-04 21:18 37.07458 25.61208 35788 ft 456 kts 316°
2026-05-04 21:18 37.09726 25.58414 35531 ft 457 kts 316°
2026-05-04 21:18 37.11974 25.55644 35283 ft 459 kts 316°
2026-05-04 21:19 37.14254 25.52831 35071 ft 461 kts 316°
2026-05-04 21:19 37.16540 25.50008 34826 ft 462 kts 316°
2026-05-04 21:19 37.18856 25.47148 34577 ft 464 kts 316°
2026-05-04 21:19 37.21127 25.44340 34344 ft 466 kts 316°
2026-05-04 21:20 37.23468 25.41439 34104 ft 468 kts 316°
2026-05-04 21:20 37.25613 25.38435 33830 ft 470 kts 309°
2026-05-04 21:20 37.27455 25.35028 33544 ft 473 kts 301°
2026-05-04 21:20 37.28879 25.31296 33259 ft 476 kts 293°
2026-05-04 21:21 37.30050 25.27399 33003 ft 478 kts 291°
2026-05-04 21:21 37.31141 25.23449 32736 ft 480 kts 290°
2026-05-04 21:21 37.32195 25.19467 32473 ft 481 kts 290°
2026-05-04 21:21 37.33240 25.15459 32216 ft 482 kts 290°
2026-05-04 21:22 37.34286 25.11450 31947 ft 483 kts 290°
2026-05-04 21:22 37.35337 25.07444 31685 ft 484 kts 290°
2026-05-04 21:22 37.36404 25.03401 31441 ft 485 kts 290°
2026-05-04 21:22 37.37476 24.99377 31182 ft 485 kts 290°
2026-05-04 21:23 37.38543 24.95359 30928 ft 483 kts 290°
2026-05-04 21:23 37.39598 24.91381 30429 ft 476 kts 289°
2026-05-04 21:23 37.40638 24.87453 29743 ft 471 kts 289°
2026-05-04 21:23 37.41666 24.83565 29095 ft 466 kts 289°
2026-05-04 21:24 37.42670 24.79765 28481 ft 460 kts 290°
2026-05-04 21:24 37.43672 24.75967 27870 ft 455 kts 290°
2026-05-04 21:24 37.44664 24.72200 27248 ft 450 kts 290°
2026-05-04 21:24 37.45645 24.68470 26658 ft 446 kts 290°
2026-05-04 21:25 37.46613 24.64786 26073 ft 442 kts 290°
2026-05-04 21:25 37.47573 24.61128 25479 ft 437 kts 290°
2026-05-04 21:25 37.48525 24.57496 24898 ft 433 kts 290°
2026-05-04 21:25 37.49465 24.53900 24324 ft 430 kts 290°
2026-05-04 21:26 37.50388 24.50370 23683 ft 431 kts 290°
2026-05-04 21:26 37.51344 24.46713 22843 ft 436 kts 290°
2026-05-04 21:26 37.52278 24.43130 22052 ft 435 kts 290°
2026-05-04 21:26 37.53218 24.39516 21270 ft 433 kts 290°
2026-05-04 21:27 37.54151 24.35925 20507 ft 430 kts 290°
2026-05-04 21:27 37.55066 24.32359 19786 ft 427 kts 289°
2026-05-04 21:27 37.55632 24.28699 19064 ft 427 kts 276°
2026-05-04 21:27 37.55656 24.24960 18361 ft 425 kts 271°
2026-05-04 21:28 37.55564 24.21242 17555 ft 422 kts 270°
2026-05-04 21:28 37.55465 24.17593 16778 ft 407 kts 270°
2026-05-04 21:28 37.55374 24.14102 15921 ft 390 kts 271°
2026-05-04 21:28 37.55289 24.10738 14958 ft 377 kts 271°
2026-05-04 21:29 37.55210 24.07489 13998 ft 366 kts 271°
2026-05-04 21:29 37.55134 24.04320 12963 ft 356 kts 271°
2026-05-04 21:29 37.55058 24.01238 11951 ft 347 kts 271°
2026-05-04 21:29 37.54985 23.98267 10985 ft 339 kts 271°
2026-05-04 21:30 37.54911 23.95294 10005 ft 332 kts 272°
2026-05-04 21:30 37.54841 23.92452 8967 ft 325 kts 272°
2026-05-04 21:30 37.54771 23.89591 7942 ft 320 kts 272°
2026-05-04 21:30 37.54703 23.86842 7038 ft 315 kts 272°
2026-05-04 21:31 37.54565 23.81715 6506 ft 272 kts 272°
2026-05-04 21:31 37.54505 23.79294 6163 ft 277 kts 272°
2026-05-04 21:31 37.54447 23.76861 5700 ft 277 kts 272°
2026-05-04 21:32 37.54388 23.74444 5257 ft 276 kts 272°
2026-05-04 21:32 37.54385 23.72052 4868 ft 270 kts 278°
2026-05-04 21:32 37.54797 23.69791 4424 ft 262 kts 296°
2026-05-04 21:32 37.55750 23.67886 4020 ft 254 kts 315°
2026-05-04 21:33 37.57108 23.66516 3594 ft 249 kts 332°
2026-05-04 21:33 37.58723 23.65776 3171 ft 247 kts 349°
2026-05-04 21:33 37.60440 23.65727 2990 ft 249 kts
2026-05-04 21:33 37.62104 23.66357 2975 ft 252 kts 24°
2026-05-04 21:34 37.63637 23.67432 2977 ft 253 kts 29°
2026-05-04 21:34 37.65140 23.68595 2978 ft 253 kts 30°
2026-05-04 21:34 37.66638 23.69754 2980 ft 253 kts 29°
2026-05-04 21:34 37.68143 23.70909 2979 ft 253 kts 29°
2026-05-04 21:35 37.69648 23.72058 2978 ft 253 kts 29°
2026-05-04 21:35 37.71155 23.73205 2977 ft 253 kts 29°
2026-05-04 21:35 37.72660 23.74349 2979 ft 253 kts 29°
2026-05-04 21:35 37.74170 23.75493 2984 ft 252 kts 30°
2026-05-04 21:36 37.75706 23.76475 2975 ft 245 kts 26°
2026-05-04 21:36 37.77080 23.77599 2982 ft 226 kts 36°
2026-05-04 21:36 37.78282 23.78754 2988 ft 207 kts 35°
2026-05-04 21:36 37.79376 23.79803 2998 ft 188 kts 35°
2026-05-04 21:37 37.80403 23.80773 2985 ft 183 kts 34°
2026-05-04 21:37 37.81429 23.81722 2965 ft 183 kts 34°
2026-05-04 21:37 37.82456 23.82667 2778 ft 181 kts 34°
2026-05-04 21:37 37.83444 23.83602 2527 ft 174 kts 35°
2026-05-04 21:38 37.84397 23.84515 2277 ft 169 kts 35°
2026-05-04 21:38 37.85321 23.85394 2042 ft 162 kts 34°
2026-05-04 21:38 37.86191 23.86220 1827 ft 152 kts 34°
2026-05-04 21:38 37.87010 23.86999 1637 ft 142 kts 34°
2026-05-04 21:39 37.87791 23.87741 1446 ft 140 kts 35°
2026-05-04 21:39 37.88572 23.88485 1244 ft 141 kts 35°
2026-05-04 21:39 37.89355 23.89230 1046 ft 141 kts 36°
2026-05-04 21:39 37.90139 23.89976 844 ft 141 kts 35°
2026-05-04 21:40 37.90919 23.90719 661 ft 140 kts 35°
2026-05-04 21:40 37.91683 23.91447 481 ft 139 kts 35°
2026-05-04 21:40 37.92457 23.92185 317 ft 139 kts 35°
2026-05-04 21:40 37.93222 23.92916 281 ft 133 kts 36°
2026-05-04 21:41 37.93703 23.93376 292 ft 50 kts 40°
2026-05-04 21:41 37.93913 23.93641 295 ft 27 kts 59°
2026-05-04 21:41 37.93970 23.93811 295 ft 9 kts 70°
2026-05-04 21:41 37.93977 23.93837 295 ft 2 kts 70°
2026-05-04 21:42 37.93982 23.93853 295 ft 4 kts 69°
2026-05-04 21:42 37.93990 23.93876 296 ft 1 kts 66°
2026-05-04 21:42 37.93997 23.93895 295 ft 4 kts 63°
2026-05-04 21:42 37.94024 23.93941 294 ft 8 kts 49°
2026-05-04 21:43 37.94075 23.94000 297 ft 11 kts 38°
2026-05-04 21:43 37.94147 23.94068 297 ft 15 kts 36°
2026-05-04 21:43 37.94231 23.94158 299 ft 16 kts 59°
2026-05-04 21:43 37.94262 23.94303 299 ft 18 kts 53°
2026-05-04 21:44 37.94367 23.94416 299 ft 21 kts 39°
2026-05-04 21:44 37.94490 23.94538 301 ft 24 kts 37°
2026-05-04 21:44 37.94609 23.94663 301 ft 19 kts 57°
2026-05-04 21:44 37.94579 23.94803 302 ft 19 kts 122°
2026-05-04 21:45 37.94494 23.94950 300 ft 23 kts 127°
2026-05-04 21:45 37.94388 23.95128 294 ft 26 kts 127°
2026-05-04 21:45 37.94269 23.95322 286 ft 30 kts 128°
2026-05-04 21:45 37.94134 23.95536 283 ft 20 kts 143°
2026-05-04 21:46 37.94055 23.95523 284 ft 13 kts 212°
2026-05-04 21:46 37.93977 23.95446 285 ft 16 kts 218°
2026-05-04 21:46 37.93898 23.95339 285 ft 18 kts 240°
2026-05-04 21:46 37.93835 23.95195 287 ft 20 kts 226°
2026-05-04 21:47 37.93721 23.95081 288 ft 22 kts 216°
2026-05-04 21:47 37.93593 23.94959 294 ft 24 kts 215°
2026-05-04 21:47 37.93490 23.94861 295 ft 7 kts 231°
2026-05-04 21:47 37.93490 23.94807 294 ft 5 kts 300°
2026-05-04 21:48 37.93509 23.94767 294 ft 0 kts 302°
2026-05-04 21:48 37.93516 23.94755 296 ft 0 kts 304°
2026-05-04 21:48 37.93515 23.94755 296 ft 0 kts 304°